Home   Weather   Oelde   Past weeks

Flag for Germany Past Weather in Oelde, North Rhine-Westphalia, Germany — Yesterday and Last 2 Weeks

Now
52 °F

Scattered clouds.


Feels Like: 49 °F
Forecast: 44 / 46 °F
Wind: 9 mph from West

Location: Paderborn / Lippstadt

Current Time: Dec 10, 2016 at 1:45:35 pm

Latest Report: Dec 10, 2016 at 12:50 pm


Visibility: N/A

Pressure: 30.18 "Hg

Humidity: 54%

Dew Point: 36 °F

Location of OeldeLocation

Past Weather in Oelde — Graph

°F

Oelde Temperature Yesterday

Maximum temperature yesterday: 50 °F (at 11:50 am)
Minimum temperature yesterday: 43 °F (at 12:50 am)
Average temperature yesterday: 48 °F

High & Low Weather Summary for the Past Weeks

 TemperatureHumidityPressure
High54 °F (Dec 8, 11:50 am)100% (Nov 27, 9:50 am)30.57 "Hg (Nov 27, 9:50 am)
Low18 °F (Nov 29, 6:50 am)28% (Nov 30, 11:50 am)30.04 "Hg (Nov 27, 12:50 am)
Average36 °F76%30.30 "Hg
* Reported Nov 25 12:20 pm — Dec 10 12:20 pm, Oelde, Weather by CustomWeather, © 2016

Note: Actual official high and low records may vary slightly from our data, if they occured in-between our weather recording intervals... More about our weather records

Advertising

Oelde Weather History for the Previous 24 Hours

Scroll right to see more
 ConditionsComfort  
Time TempWeatherWind HumidityBarometerVisibility
12:20 pm
Sat, Dec 10
52 °FScattered clouds.12 mph62%30.18 "HgN/A
11:50 am50 °FScattered clouds.12 mph67%30.18 "HgN/A
11:20 am50 °FScattered clouds.12 mph67%30.21 "HgN/A
10:50 am48 °FScattered clouds.12 mph71%30.21 "HgN/A
10:20 am48 °FPassing clouds.12 mph71%30.21 "HgN/A
9:50 am48 °FSunny.17 mph66%30.21 "Hg10 mi
9:20 am48 °FSunny.13 mph66%30.21 "Hg10 mi
8:50 am50 °FSunny.14 mph58%30.21 "Hg10 mi
8:20 am46 °FClear.12 mph66%30.21 "Hg10 mi
7:50 am46 °FClear.12 mph66%30.18 "Hg10 mi
7:20 am46 °FClear.10 mph71%30.18 "Hg10 mi
6:50 am46 °FClear.10 mph71%30.18 "Hg10 mi
6:20 am46 °FClear.14 mph71%30.18 "Hg10 mi
5:50 am46 °FClear.12 mph76%30.21 "Hg10 mi
5:20 am46 °FClear.13 mph76%30.21 "Hg10 mi
4:50 am46 °FClear.9 mph76%30.24 "Hg10 mi
4:20 am46 °FClear.9 mph76%30.24 "Hg10 mi
3:50 am46 °FClear.8 mph76%30.24 "Hg10 mi
3:20 am45 °FClear.8 mph81%30.27 "Hg10 mi
2:50 am46 °FCool.8 mph76%30.24 "HgN/A
2:20 am48 °FClear.14 mph76%30.24 "Hg10 mi
12:50 am48 °FClear.10 mph76%30.27 "Hg10 mi
12:20 am48 °FClear.13 mph76%30.27 "Hg10 mi
11:50 pm
Fri, Dec 9
50 °FClear.13 mph71%30.27 "Hg10 mi
11:20 pm48 °FClear.12 mph76%30.27 "Hg10 mi
10:50 pm48 °FClear.9 mph76%30.30 "Hg10 mi
10:20 pm46 °FClear.10 mph82%30.30 "Hg10 mi
9:50 pm48 °FClear.13 mph82%30.30 "Hg10 mi
9:20 pm48 °FClear.12 mph87%30.30 "Hg10 mi
8:50 pm50 °FPassing clouds.12 mph82%30.30 "HgN/A
7:50 pm50 °FMostly cloudy.12 mph88%30.30 "HgN/A
7:20 pm50 °FOvercast.12 mph82%30.30 "HgN/A
6:50 pm50 °FPassing clouds.12 mph82%30.30 "HgN/A
6:20 pm50 °FOvercast.12 mph82%30.30 "HgN/A
5:50 pm50 °FOvercast.12 mph88%30.33 "HgN/A
5:20 pm50 °FDrizzle. Overcast.10 mph88%30.33 "HgN/A
4:50 pm50 °FDrizzle. Low clouds.9 mph88%30.33 "Hg5 mi
4:20 pm50 °FDrizzle. Fog.10 mph88%30.33 "Hg3 mi
3:50 pm50 °FPartly sunny.8 mph88%30.33 "Hg6 mi
3:20 pm50 °FPartly sunny.10 mph88%30.33 "Hg6 mi
2:50 pm50 °FPartly sunny.9 mph88%30.33 "Hg6 mi
2:20 pm50 °FPartly sunny.10 mph88%30.33 "Hg6 mi
1:50 pm50 °FPartly sunny.8 mph82%30.36 "Hg6 mi
1:20 pm48 °FPartly sunny.7 mph87%30.36 "Hg5 mi
Weather by CustomWeather, © 2016

See weather overviewHow to use our weather pages